Location: Unspecified
(0.0000°N, 0.0000°E)
Time: 23:37:05
(UTC+00:00)

AEROCUBE 6A - Visible Passes

Search period start: 01 March 2021 00:00
Search period end: 11 March 2021 00:00
Orbit: 603 x 682 km, 97.7° (Epoch: 01 March)

Date Brightness Start Highest point End Pass type
(mag) Time Alt. Az. Time Alt. Az. Time Alt. Az.
01 Mar ? 18:43:32 10° E 18:44:19 10° ESE 18:45:05 10° ESE visible
01 Mar ? 20:20:35 30° WNW 20:20:39 30° WNW 20:24:25 10° SW visible
02 Mar ? 19:07:34 21° E 19:08:33 23° ESE 19:11:57 10° SSE visible
02 Mar ? 20:45:13 14° W 20:45:13 14° W 20:47:03 10° WSW visible
03 Mar ? 19:32:12 48° ENE 19:32:47 52° ESE 19:36:56 10° S visible
04 Mar ? 19:56:49 65° WNW 19:57:00 66° WNW 20:01:14 10° SSW visible
05 Mar ? 18:43:54 10° E 18:44:53 11° ESE 18:45:52 10° ESE visible
05 Mar ? 20:21:26 28° W 20:21:26 28° W 20:24:54 10° SW visible
06 Mar ? 19:08:26 23° E 19:09:06 24° ESE 19:12:32 10° SSE visible
06 Mar ? 20:46:04 13° W 20:46:04 13° W 20:47:24 10° WSW visible
07 Mar ? 19:33:03 53° E 19:33:20 54° ESE 19:37:28 10° S visible
08 Mar ? 19:57:41 63° W 19:57:41 63° W 20:01:45 10° SSW visible
09 Mar ? 18:44:41 11° E 18:45:26 11° ESE 18:46:35 10° ESE visible
09 Mar ? 20:22:19 26° W 20:22:19 26° W 20:25:23 10° SW visible
10 Mar ? 19:09:19 24° E 19:09:38 24° ESE 19:13:05 10° SSE visible
10 Mar ? 20:46:57 12° W 20:46:57 12° W 20:47:46 10° WSW visible
